When you browse on this site, cookies collect data to enhance your experience and personalize the content and advertising you see.
Visit our Privacy Policy to learn more. By continuing to use the site, you agree to this use of cookies and data.
  • In Romania
  • List of Countries
  • For 7 days
  • Water Temperature
  • Satellite Maps
  • Weather Map
  • Weather Widgets
  • user-avatar
    Login

    Hourly Weather Kropotovo

    Today, 26 March, Tuesday

    Time Temperature Precipitation Wind Pressure Humidity
    00:00 -4°C° 0 mm 3 mps 739 mmHg 88%
    01:00 -4°C° 0 mm 3 mps 739 mmHg 87%
    02:00 -4°C° 0 mm 3 mps 739 mmHg 86%
    03:00 -2°C° 0 mm 3 mps 738 mmHg 83%
    04:00 -2°C° 0 mm 3 mps 738 mmHg 84%
    05:00 -2°C° 0 mm 3 mps 738 mmHg 86%
    06:00 -2°C° 0 mm 3 mps 737 mmHg 88%
    07:00 -2°C° 0 mm 2 mps 737 mmHg 90%
    08:00 -1°C° 0 mm 2 mps 737 mmHg 93%
    09:00 -1°C° 0 mm 3 mps 737 mmHg 92%
    10:00 0°C° 0 mm 3 mps 737 mmHg 95%
    11:00 0°C° 0 mm 3 mps 737 mmHg 97%
    12:00 +1°C° 0 mm 2 mps 737 mmHg 99%
    13:00 0°C° 0 mm 3 mps 737 mmHg 99%
    14:00 0°C° 0 mm 3 mps 737 mmHg 99%
    15:00 -1°C° 0 mm 4 mps 737 mmHg 99%
    16:00 -1°C° 0 mm 4 mps 737 mmHg 99%
    17:00 -2°C° 0 mm 4 mps 738 mmHg 99%
    18:00 -2°C° 0 mm 4 mps 738 mmHg 99%
    19:00 -2°C° 0 mm 4 mps 738 mmHg 98%
    20:00 -2°C° 0 mm 4 mps 738 mmHg 97%
    21:00 -2°C° 0 mm 4 mps 739 mmHg 96%
    22:00 -2°C° 0 mm 3 mps 739 mmHg 95%
    23:00 -4°C° 0 mm 3 mps 739 mmHg 94%

    Tomorrow, 27 March, Wednesday

    Time Temperature Precipitation Wind Pressure Humidity
    00:00 -4°C° 0 mm 2 mps 740 mmHg 93%
    01:00 -5°C° 0 mm 2 mps 740 mmHg 92%
    02:00 -5°C° 0 mm 2 mps 740 mmHg 90%
    03:00 -6°C° 0 mm 2 mps 741 mmHg 89%
    04:00 -7°C° 0 mm 2 mps 741 mmHg 88%
    05:00 -7°C° 0 mm 2 mps 741 mmHg 87%
    06:00 -7°C° 0 mm 2 mps 741 mmHg 87%
    07:00 -6°C° 0 mm 2 mps 742 mmHg 87%
    08:00 -5°C° 0 mm 2 mps 742 mmHg 87%
    09:00 -2°C° 0 mm 1 mps 743 mmHg 87%
    10:00 -1°C° 0 mm 1 mps 743 mmHg 89%
    11:00 0°C° 0 mm 1 mps 743 mmHg 90%
    12:00 +1°C° 0 mm 1 mps 744 mmHg 92%
    13:00 +1°C° 0 mm 1 mps 744 mmHg 95%
    14:00 -1°C° 0 mm 2 mps 744 mmHg 97%
    15:00 -1°C° 0 mm 2 mps 744 mmHg 99%
    16:00 -1°C° 0 mm 2 mps 744 mmHg 98%
    17:00 -2°C° 0 mm 2 mps 745 mmHg 97%
    18:00 -3°C° 0 mm 2 mps 745 mmHg 95%
    19:00 -3°C° 0 mm 2 mps 745 mmHg 93%
    20:00 -4°C° 0 mm 2 mps 746 mmHg 90%
    21:00 -6°C° 0 mm 3 mps 746 mmHg 88%
    22:00 -6°C° 0 mm 3 mps 746 mmHg 88%
    23:00 -7°C° 0 mm 3 mps 747 mmHg 88%

    Day after tomorrow, 28 March, Thursday

    Time Temperature Precipitation Wind Pressure Humidity
    00:00 -7°C° 0 mm 3 mps 747 mmHg 88%
    01:00 -8°C° 0 mm 3 mps 747 mmHg 89%
    02:00 -8°C° 0 mm 3 mps 747 mmHg 90%
    03:00 -8°C° 0 mm 3 mps 747 mmHg 92%
    04:00 -9°C° 0 mm 3 mps 747 mmHg 92%
    05:00 -9°C° 0 mm 3 mps 748 mmHg 93%
    06:00 -9°C° 0 mm 3 mps 748 mmHg 94%
    07:00 -9°C° 0 mm 4 mps 748 mmHg 93%
    08:00 -8°C° 0 mm 4 mps 749 mmHg 92%
    09:00 -7°C° 0 mm 5 mps 749 mmHg 91%
    10:00 -6°C° 0 mm 5 mps 749 mmHg 90%
    11:00 -5°C° 0 mm 5 mps 749 mmHg 89%
    12:00 -4°C° 0 mm 5 mps 750 mmHg 89%
    13:00 -4°C° 0 mm 5 mps 750 mmHg 88%
    14:00 -4°C° 0 mm 5 mps 750 mmHg 86%
    15:00 -2°C° 0 mm 5 mps 750 mmHg 85%
    16:00 -3°C° 0 mm 4 mps 750 mmHg 85%
    17:00 -3°C° 0 mm 4 mps 750 mmHg 85%
    18:00 -2°C° 0 mm 3 mps 750 mmHg 85%
    19:00 -4°C° 0 mm 3 mps 750 mmHg 84%
    20:00 -6°C° 0 mm 3 mps 750 mmHg 84%
    21:00 -7°C° 0 mm 3 mps 750 mmHg 83%
    22:00 -7°C° 0 mm 3 mps 750 mmHg 83%
    23:00 -7°C° 0 mm 3 mps 750 mmHg 82%

    29 March, Friday

    Time Temperature Precipitation Wind Pressure Humidity
    00:00 -7°C° 0 mm 3 mps 750 mmHg 82%
    01:00 -7°C° 0 mm 3 mps 750 mmHg 84%
    02:00 -6°C° 0 mm 3 mps 749 mmHg 87%
    03:00 -5°C° 0 mm 3 mps 749 mmHg 89%
    04:00 -5°C° 0 mm 3 mps 749 mmHg 89%
    05:00 -5°C° 0 mm 3 mps 749 mmHg 90%
    06:00 -5°C° 0 mm 3 mps 748 mmHg 90%
    07:00 -4°C° 0.1 mm 3 mps 748 mmHg 92%
    08:00 -2°C° 0.1 mm 3 mps 748 mmHg 94%
    09:00 -1°C° 0.1 mm 3 mps 748 mmHg 95%
    10:00 -1°C° 0.1 mm 3 mps 748 mmHg 97%
    11:00 -1°C° 0.1 mm 3 mps 748 mmHg 98%
    12:00 0°C° 0.1 mm 3 mps 748 mmHg 99%
    13:00 0°C° 0 mm 3 mps 747 mmHg 99%
    14:00 0°C° 0 mm 3 mps 747 mmHg 99%
    15:00 0°C° 0 mm 3 mps 747 mmHg 99%
    16:00 0°C° 0 mm 3 mps 747 mmHg 99%
    17:00 0°C° 0 mm 3 mps 747 mmHg 99%
    18:00 0°C° 0 mm 3 mps 747 mmHg 99%
    19:00 0°C° 0 mm 3 mps 747 mmHg 98%
    20:00 -1°C° 0 mm 3 mps 747 mmHg 97%
    21:00 -1°C° 0 mm 3 mps 748 mmHg 96%
    22:00 -1°C° 0 mm 3 mps 747 mmHg 95%
    23:00 -1°C° 0 mm 3 mps 747 mmHg 94%

    30 March, Saturday

    Time Temperature Precipitation Wind Pressure Humidity
    00:00 -2°C° 0 mm 3 mps 747 mmHg 93%
    01:00 -2°C° 0 mm 3 mps 747 mmHg 93%
    02:00 -1°C° 0 mm 3 mps 746 mmHg 93%
    03:00 -1°C° 0 mm 3 mps 746 mmHg 92%
    04:00 -1°C° 0 mm 3 mps 746 mmHg 92%
    05:00 -2°C° 0 mm 4 mps 746 mmHg 92%
    06:00 -2°C° 0 mm 4 mps 745 mmHg 92%
    07:00 -1°C° 0 mm 4 mps 745 mmHg 95%
    08:00 -1°C° 0 mm 4 mps 745 mmHg 97%
    09:00 0°C° 0 mm 4 mps 745 mmHg 99%
    10:00 0°C° 0 mm 4 mps 745 mmHg 99%
    11:00 0°C° 0 mm 5 mps 745 mmHg 99%
    12:00 +1°C° 0 mm 5 mps 745 mmHg 99%
    13:00 +1°C° 0 mm 5 mps 745 mmHg 99%
    14:00 +1°C° 0 mm 5 mps 744 mmHg 99%
    15:00 +1°C° 0 mm 5 mps 744 mmHg 99%
    16:00 +1°C° 0 mm 4 mps 744 mmHg 99%
    17:00 +1°C° 0 mm 4 mps 744 mmHg 99%
    18:00 +1°C° 0 mm 4 mps 744 mmHg 99%
    19:00 +1°C° 0 mm 4 mps 744 mmHg 97%
    20:00 +1°C° 0 mm 3 mps 745 mmHg 96%
    21:00 +1°C° 0 mm 3 mps 745 mmHg 94%
    22:00 +1°C° 0 mm 3 mps 745 mmHg 92%
    23:00 +1°C° 0 mm 3 mps 745 mmHg 89%

    31 March, Sunday

    Time Temperature Precipitation Wind Pressure Humidity
    00:00 +1°C° 0 mm 3 mps 745 mmHg 86%
    01:00 +1°C° 0 mm 3 mps 745 mmHg 86%
    02:00 +1°C° 0 mm 3 mps 745 mmHg 86%
    03:00 +1°C° 0 mm 3 mps 745 mmHg 87%
    04:00 +1°C° 0 mm 3 mps 745 mmHg 87%
    05:00 +1°C° 0 mm 3 mps 745 mmHg 87%
    06:00 0°C° 0 mm 3 mps 745 mmHg 88%
    07:00 +1°C° 0 mm 3 mps 745 mmHg 91%
    08:00 +1°C° 0 mm 3 mps 744 mmHg 95%
    09:00 +1°C° 0 mm 3 mps 744 mmHg 99%
    10:00 +2°C° 0 mm 3 mps 744 mmHg 98%
    11:00 +1°C° 0 mm 4 mps 744 mmHg 98%
    12:00 +3°C° 0 mm 4 mps 744 mmHg 97%
    13:00 +3°C° 0 mm 4 mps 744 mmHg 96%
    14:00 +4°C° 0 mm 4 mps 744 mmHg 95%
    15:00 +4°C° 0 mm 4 mps 743 mmHg 94%
    16:00 +4°C° 0 mm 4 mps 744 mmHg 94%
    17:00 +3°C° 0 mm 3 mps 744 mmHg 94%
    18:00 +3°C° 0 mm 3 mps 744 mmHg 93%
    19:00 +3°C° 0 mm 3 mps 744 mmHg 91%
    20:00 +4°C° 0 mm 2 mps 744 mmHg 88%
    21:00 +3°C° 0 mm 2 mps 745 mmHg 85%
    22:00 +3°C° 0 mm 2 mps 745 mmHg 84%
    23:00 +4°C° 0 mm 1 mps 745 mmHg 83%
    Show more